User: anonymous   Login
Location: S�tio Afonso Gruber
(26.1760°S, 49.5250°W)
Time: 13:54:38
(UTC+00:00)
Language:

KAITUO 1B - Orbit

View from above orbital plane
View from above orbital plane
View from above satellite
View from above satellite

Ground track
Ground track

The orbit data is extracted from the following two-line orbital elements,

1 40912U 15049P   22342.27326451  .00015076  00000-0  51410-3 0  9991
2 40912  97.4311 353.2666 0013508  51.2831   9.2449 15.30365768400298
Epoch (UTC): 08 December 2022 06:33:30
Eccentricity: 0.0013508
inclination: 97.4311°
perigee height: 465 km
apogee height: 484 km
right ascension of ascending node: 353.2666°
argument of perigee: 51.2831°
revolutions per day: 15.30365768
mean anomaly at epoch: 9.2449°
orbit number at epoch: 40029

The dashed part of the orbit path shows where the satellite is in the earth's shadow,  

DLR